Showing default

QIANFAN-25, 61558

Orbit data source: Space-Track

QIANFAN-25, 61558 is a Chinese payload satellite in LEO that was launched on Tue, 15 Oct 2024 UTC via a CHANG ZHENG 6A launch vehicle from the Taiyaun Space Center, China (TSC). Payloads include a variety of satellites, spacecraft, and rockets equipped with specific instruments for various scientific and technological missions. These include communications satellites like Starlink; space stations such as the ISS; scientific satellites like the Hubble; Earth observation satellites from companies like Planet Labs, Umbra, and HawkEye 360; GPS; miniature CubeSats for education and research; and military/defense satellites.

Loading next visibility...
QIANFAN-25 details
Identifier
61558, 2024-185G
Orbit
LEO
Last TLE update15 hours ago
Origin
Flag of CNYUANX (CN / PRC)
ManufacturerGESIH/SECM
MissionOperational Commercial Communications
Bus & MotorQIANFAN, Unknown motor
Mass300 kg wet, ~300 kg dry
Launch date (UTC)
2024-10-15 (4 months ago)
Launch vehicle
CHANG ZHENG 6A
Launch site
Taiyaun Space Center, China (TSC)
Object type
Payload
Rocket body
Debris
Shape & HBRBox + 1 Pan, 10 m
Radar Cross Section13.200 m², Large (>1 m²)

Expand to show TLE details & history

TLE from 15 hours ago
0 QIANFAN-25
1 61558U 24185G   25035.55311423  .00001328  00000-0  64522-3 0  9990
2 61558  88.9879 113.4117 0005961 212.8419 147.2400 14.17723124 25751
Epoch: 2025-02-04T13:16Z
Definitive object data (Epoch: 2025-02-04T13:16:29.069Z)
Latitude-0.00003°
Longitude139.33382°
Altitude839.729 km
Speed7.431 km/s
True Right ascension07h 33m 38s
True Declination0° 00' 00"
Sunlit
Object was in full shadow at TLE epoch
Visualization TLE readout
Latitude-55.81213°
Longitude-39.25362°
Altitude850.9 km
Speed7.428 km/s
Apparent Right ascension18h 43m 47s
Apparent Declination-48° 53' 08"
Sunlit
Object is in daylight
Visualization observer readout
Local Sidereal Time05:57:48
Azimuth218.561° SW
Elevation-77.866°
Doppler factor1
Orbital elements
Apogee altitude834.315 km
Perigee altitude825.721 km
Semi-major axis7,208.155 km
Eccentricity0.0005961
Inclination88.9879°
RAAN113.4117°
Arg. of periapsis212.8419°
True anomaly147.27694°
Mean anomaly147.24°
Eccentric anomaly147.25847°
Mean motion3.54656 °/min
BSTAR0.00064522
Orbital period101.51 mins
Loading maneuver chart data...
Loading historical data...
Loading historical data...
Loading historical data...
Loading historical data...
Loading historical data...
Loading historical data...
Loading historical data...

QIANFAN-25 Visibility forecast

Observer location: undefined°, undefined

Span
Click to sort rows by Start time (UTC) header in descending order
Start Az.
Max El. time (UTC)
Max El. Az.
Max El.
End time (UTC)
End Az.
8 mins2025-02-05 04:39:03.125Z132.753° SE2025-02-05 04:43:03.125Z73.686° E26.602°2025-02-05 04:47:03.125Z22.842° NE
7 mins2025-02-05 06:21:03.125Z225.909° WSW2025-02-05 06:24:03.125Z273.109° WNW27.798°2025-02-05 06:28:03.125Z332.502° NNW
9 mins2025-02-05 16:58:03.125Z14.112° NNE2025-02-05 17:02:03.125Z81.691° E39.225°2025-02-05 17:07:03.125Z164.356° S
5 mins2025-02-05 18:41:03.125Z312.372° NW2025-02-05 18:43:03.125Z287.044° WNW16.957°2025-02-05 18:46:03.125Z250.131° W
|